Preview of NWS' New Version of Forecast
This preview is not operational and should not be used for support decisions.

Regional Weather Roundup (RWR)

Issued by National Weather Service (NWS)

                            
000
ASUS43 KMKX 200511
RWRWI 

WISCONSIN REGIONAL WEATHER ROUNDUP
NATIONAL WEATHER SERVICE MILWAUKEE/SULLIVAN WI
1200 AM CDT THU JUN 20 2019

NOTE: "FAIR" INDICATES FEW OR NO CLOUDS BELOW 12,000 FEET WITH NO
SIGNIFICANT WEATHER AND/OR OBSTRUCTIONS TO VISIBILITY.

WIZ001-002-006>008-014>016-023>028-200600-
NORTHWEST WISCONSIN
  
CITY           SKY/WX    TMP DP  RH WIND       PRES   REMARKS
SUPERIOR ARPT  FAIR      50  48  90 NE7       29.83R                  
ASHLAND        FAIR      47  46  97 CALM      29.83S                  
HAYWARD        FAIR      52  47  83 NE6       29.81R                  
SIREN          FAIR      57  45  64 CALM      29.80R                  
CUMBERLAND     FAIR      61  45  55 NE8       29.79S                  
RICE LAKE      FAIR      61  49  65 NE6       29.79S                  
CHETEK         FAIR      62  49  63 NE6       29.78R                  
LADYSMITH      FAIR      57  48  72 NE3       29.81S                  
EAU CLAIRE     FAIR      60  54  80 NE6       29.75R                  
MENOMONIE      FAIR      59  51  76 N3        29.76S                  
NEW RICHMOND   FAIR      64  49  58 E5        29.77S                  
OSCEOLA        FAIR      65  50  58 NE3       29.79S                  
$$
 
WIZ003>005-009-010-017-018-200600-
NORTH CENTRAL WISCONSIN
  
CITY           SKY/WX    TMP DP  RH WIND       PRES   REMARKS
MANITOWISH WTR FAIR      50  43  77 NE3       29.83R                  
ARBOR VITAE    FAIR      52  47  82 CALM      29.83R                  
WOODRUFF       FAIR      52  47  82 CALM      29.83R                  
RHINELANDER    FAIR      54  43  66 CALM      29.82S                  
EAGLE RIVER    FAIR      47  42  82 CALM      29.83R                  
LAND O LAKES   FAIR      44  42  95 CALM      29.85S                  
PHILLIPS       FAIR      55  47  76 CALM      29.81R                  
TOMAHAWK       FAIR      54  45  73 CALM      29.82R                  
MEDFORD        FAIR      55  49  81 E6        29.79S                  
MERRILL        FAIR      54  49  81 CALM      29.80F                  
$$
 
WIZ029-030-035-036-043>047-200600-
CENTRAL WISCONSIN
  
CITY           SKY/WX    TMP DP  RH WIND       PRES   REMARKS
WAUSAU         FAIR      58  49  72 E5        29.77F                  
MOSINEE        FAIR      57  54  88 NE5       29.79S                  
MARSHFIELD     FAIR      60  54  80 E5        29.77S                  
STEVENS POINT  FAIR      53  53 100 NE3       29.78S                  
WAUPACA        FAIR      61  54  76 N3        29.76F                  
WAUTOMA        FAIR      58  54  86 NE5       29.76S                  
WISC RAPIDS    FAIR      60  53  77 NE3       29.77S                  
CAMP DOUGLAS   FAIR      55  55 100 CALM      29.76R                  
$$
 
WIZ011>013-019>022-031-037>040-048>050-200600-
NORTHEAST WISCONSIN
  
CITY           SKY/WX    TMP DP  RH WIND       PRES   REMARKS
ANTIGO         FAIR      52  47  84 NE3       29.81S                  
SHAWANO        FAIR      62  56  82 NE7       29.78R                  
OCONTO         CLOUDY    59  51  74 NE5       29.76F                  
STURGEON BAY   CLOUDY    61  51  70 NE9       29.77S                  
GREEN BAY      FAIR      60  56  86 N10       29.76S                  
MANITOWOC      FAIR      57  54  89 N6        29.75S                  
APPLETON       FAIR      59  50  72 N7        29.74F                  
CLINTONVILLE   MOCLDY    60  54  80 N3        29.77F                  
OSHKOSH        FAIR      62  55  77 NE8       29.74S                  
$$
 
WIZ032>034-041-042-053>061-200600-
SOUTHWEST WISCONSIN
  
CITY           SKY/WX    TMP DP  RH WIND       PRES   REMARKS
LA CROSSE      FAIR      66  56  70 SE5       29.74R                  
SPARTA         FAIR      55  53  94 CALM      29.76S                  
VIROQUA        FAIR      61  58  92 E3        29.76S                  
BOSCOBEL       FAIR      59  57  93 CALM      29.74S                  
PRAIRIE DU CHI FAIR      60  58  92 CALM      29.73F                  
PLATTEVILLE    MOCLDY    60  60  99 NE3       29.74S                  
$$

WIZ056-057-062-063-064-067-068-200600-
SOUTH CENTRAL WISCONSIN
  
CITY           SKY/WX    TMP DP  RH WIND       PRES   REMARKS
REEDSBURG      FAIR      58  54  85 CALM      29.75R                  
BARABOO/DELLS  FAIR      59  53  81 CALM      29.75S                  
LONE ROCK      FAIR      60  58  92 NW3       29.74S                  
MINERAL POINT  FAIR      61  61 100 CALM      29.74F                  
MADISON        CLOUDY    60  55  83 N3        29.72F                  
MIDDLETON      MOCLDY    60  58  94 CALM      29.73F                  
WATERTOWN      CLOUDY    58  56  91 NE6       29.72S                  
MONROE         CLOUDY    57  56  96 N9        29.72F                  
JANESVILLE     MOCLDY    59  57  94 NE5       29.71S                  
$$
 
WIZ051-052-058>065-066-070>072-200600-
SOUTHEAST WISCONSIN
  
CITY           SKY/WX    TMP DP  RH WIND       PRES   REMARKS
MILWAUKEE      LGT RAIN  57  54  89 N12G20    29.70F                  
WAUKESHA       LGT RAIN  54  54 100 N7        29.73F                  
MILWAUKEE/TIMM RAIN      55  52  88 N6        29.73S                  
RACINE         LGT RAIN  55  52  89 N15       29.71F                  
KENOSHA        LGT RAIN  57  56  96 N8        29.69F                  
FOND DU LAC    FAIR      63  54  72 NE10      29.74F                  
SHEBOYGAN      FAIR      57  53  86 N8        29.73S                  
WEST BEND      CLOUDY    55  54  94 N5        29.73S                  
JUNEAU         CLOUDY    59  53  81 N7        29.74F                  
$$

LSZ147-162-200600-
LAKE SUPERIOR
  
STATION/POSITION TIME  TEMP    WIND        PRES    WAVE
                       AIR SEA DIR/SP/G            HT/PER
                 (UTC) (F)     (DEG/KT/KT) (MB)    (FT/S)
W MID LAKE BUOY  0450   44 39   10/  6/  6 1010.4F   0
$$
 
LMZ867-665-643>646-200600-
LAKE MICHIGAN
  
STATION/POSITION TIME  TEMP    WIND        PRES    WAVE
                       AIR SEA DIR/SP/G            HT/PER
                 (UTC) (F)     (DEG/KT/KT) (MB)    (FT/S)
N MID LAKE BUOY  0450   47 39   20/ 10/ 10 1008.5R   0
NORTHPORT PIER   0440   59     360/  6/  7 1008.1S
KEWAUNEE LAKESHO 0424   59      10/  3/  9 1006.6
SHEBOYGAN LAKESH 0500   56     350/ 14/ 16 1006.5F
MILWAUKEE LAKESH 0450   56     360/ 13/ 19   N/A
S MID LAKE BUOY  0450   48 46  360/ 14/ 16 1004.9F   2/ 4
KENOSHA   LAKESH 0500   56      10/ 16/ 19 1005.4
$$

TC  - TEMPERATURE IN CELSIUS
VSB - VISIBILITY IN STATUTE MILES
WCI - WIND CHILL INDEX
HX  - HEAT INDEX